Weather History for Hyannis, MA

Change the Weather History Date:

Saturday, January 26, 2013

  Actual Average Record
Temperature  
Mean Temperature 22 °F -  
Max Temperature 25 °F 39 °F 56 °F (1950)
Min Temperature 17 °F 25 °F 1 °F (1963)
Degree Days  
Heating Degree Days 44    
Moisture  
Dew Point 12 °F    
Average Humidity 73    
Maximum Humidity 93    
Minimum Humidity 37    
Precipitation  
Precipitation 0.00 in - - ()
Sea Level Pressure  
Sea Level Pressure 30.01 in    
Wind  
Wind Speed 7 mph (NW)    
Max Wind Speed 18 mph    
Max Gust Speed 28 mph    
Visibility 7 miles    
Events Snow    
Averages and records for this station are not official NWS values.
T = Trace of Precipitation, MM = Missing Value Source: NWS Daily Summary

Daily Weather History Graph

Daily Weather History Graph

Search for Another Location

Airport:

Trip Planner

Search our weather history database for the weather conditions in past years. The results will help you decide how hot, cold, wet, or windy it might be!

Date:

Astronomy

Jan. 26, 2013 Rise Set
Actual Time 6:58 AM EST 4:49 PM EST
Civil Twilight 6:28 AM EST 5:19 PM EST
Nautical Twilight 5:55 AM EST 5:52 PM EST
Astronomical Twilight 5:22 AM EST 6:25 PM EST
Moon 4:41 PM EST (1/26) 6:13 AM EST (1/26)
Length of Visible Light 10h 50m
Length of Day
9h 50m
Full, 100% of the Moon is Illuminated
Jan 26
Full
Jan 26
Full
Feb 3
Last Quarter
Feb 10
New
Feb 17
First Quarter

Hourly Weather History & Observations

Time (EST) Temp. Windchill Dew Point Humidity Pressure Visibility Wind Dir Wind Speed Gust Speed Precip Events Conditions
12:06 AM 19.4 °F 14.3 °F 14.0 °F 80% 30.02 in 3.0 mi WNW 3.5 mph - 0.00 in Snow Light Snow
12:13 AM 19.4 °F - 15.8 °F 86% 30.02 in 2.0 mi Calm Calm - 0.00 in Snow Light Snow
12:41 AM 19.4 °F - 15.8 °F 86% 30.00 in 2.0 mi Calm Calm - 0.00 in Snow Light Snow
12:56 AM 19.9 °F 14.9 °F 16.0 °F 85% 30.01 in 1.8 mi NNW 3.5 mph - 0.00 in Snow Light Snow
1:04 AM 19.4 °F 14.3 °F 17.6 °F 93% 30.00 in 2.5 mi NNW 3.5 mph - 0.00 in Snow Light Snow
1:48 AM 21.2 °F 12.6 °F 17.6 °F 86% 29.98 in 1.8 mi NNW 6.9 mph - 0.00 in Snow Light Snow
1:56 AM 21.0 °F 11.4 °F 18.0 °F 88% 29.99 in 2.0 mi NW 8.1 mph - 0.00 in Snow Light Snow
2:09 AM 21.2 °F 12.6 °F 17.6 °F 86% 29.97 in 4.0 mi NNW 6.9 mph - 0.00 in Snow Light Snow
2:56 AM 21.9 °F 14.5 °F 19.0 °F 89% 29.96 in 6.0 mi NW 5.8 mph - 0.00 in Snow Light Snow
3:03 AM 21.2 °F 12.6 °F 19.4 °F 93% 29.96 in 5.0 mi NW 6.9 mph - 0.00 in Snow Light Snow
3:56 AM 21.9 °F 13.4 °F 19.0 °F 89% 29.96 in 4.0 mi WNW 6.9 mph - 0.00 in Snow Light Snow
4:56 AM 19.9 °F 11.1 °F 18.0 °F 92% 29.96 in 10.0 mi WNW 6.9 mph - 0.00 in   Overcast
5:49 AM 19.4 °F 7.9 °F 17.6 °F 93% 29.95 in 3.0 mi WNW 10.4 mph 16.1 mph 0.00 in Snow Light Snow
5:56 AM 19.9 °F 7.9 °F 17.1 °F 89% 29.96 in 2.0 mi WNW 11.5 mph - 0.00 in Snow Light Snow
6:34 AM 19.4 °F 10.4 °F 15.8 °F 86% 29.96 in 9.0 mi WNW 6.9 mph - 0.00 in   Overcast
6:56 AM 19.0 °F 10.0 °F 16.0 °F 88% 29.97 in 10.0 mi WNW 6.9 mph - 0.00 in   Overcast
7:49 AM 19.4 °F 10.4 °F 15.8 °F 86% 29.97 in 10.0 mi WNW 6.9 mph - N/A   Overcast
7:56 AM 19.0 °F 9.0 °F 15.1 °F 85% 29.98 in 10.0 mi WNW 8.1 mph - N/A   Overcast
8:41 AM 19.4 °F 7.9 °F 15.8 °F 86% 29.99 in 7.0 mi WNW 10.4 mph - N/A   Overcast
8:56 AM 18.0 °F 6.9 °F 14.0 °F 84% 29.99 in 8.0 mi NW 9.2 mph - N/A   Overcast
9:56 AM 21.0 °F 6.6 °F 15.1 °F 78% 29.99 in 10.0 mi NNW 17.3 mph 23.0 mph 0.00 in   Mostly Cloudy
10:56 AM 21.0 °F 7.6 °F 14.0 °F 74% 30.00 in 6.0 mi NW 15.0 mph 21.9 mph 0.00 in Snow Light Snow
11:56 AM 23.0 °F 10.6 °F 15.1 °F 72% 29.98 in 10.0 mi NNW 13.8 mph 20.7 mph 0.00 in   Overcast
12:52 PM 24.8 °F 12.4 °F 14.0 °F 64% 29.98 in 10.0 mi NNW 15.0 mph 24.2 mph N/A   Scattered Clouds
12:56 PM 24.1 °F 10.1 °F 14.0 °F 65% 29.98 in 10.0 mi NW 18.4 mph 24.2 mph N/A   Partly Cloudy
1:56 PM 24.1 °F 12.5 °F 12.0 °F 60% 29.99 in 10.0 mi NNW 12.7 mph 20.7 mph N/A   Clear
2:56 PM 25.0 °F 13.6 °F 10.0 °F 53% 30.00 in 10.0 mi North 12.7 mph - N/A   Clear
3:56 PM 25.0 °F 15.5 °F 8.1 °F 49% 30.02 in 10.0 mi NW 9.2 mph 16.1 mph N/A   Clear
4:56 PM 23.0 °F 13.9 °F 5.0 °F 46% 30.05 in 10.0 mi NW 8.1 mph - N/A   Clear
5:56 PM 21.9 °F 13.4 °F 1.9 °F 42% 30.06 in 10.0 mi WNW 6.9 mph - N/A   Clear
6:56 PM 21.9 °F 10.4 °F -0.9 °F 37% 30.08 in 10.0 mi NW 11.5 mph 24.2 mph N/A   Clear
7:56 PM 21.0 °F 9.9 °F -0.0 °F 40% 30.10 in 10.0 mi WNW 10.4 mph 23.0 mph N/A   Scattered Clouds
8:56 PM 19.9 °F 6.2 °F -0.9 °F 40% 30.12 in 10.0 mi NW 15.0 mph 21.9 mph N/A   Overcast
9:56 PM 18.0 °F 4.2 °F -0.9 °F 44% 30.14 in 10.0 mi NW 13.8 mph 21.9 mph N/A   Clear
10:56 PM 18.0 °F 4.2 °F 1.0 °F 48% 30.15 in 10.0 mi NW 13.8 mph 27.6 mph N/A   Clear
11:56 PM 17.1 °F 2.0 °F 1.0 °F 50% 30.17 in 10.0 mi NW 16.1 mph 26.5 mph N/A   Clear